{"data":{"norad_id":45137,"intl_designator":"2020-008G","name":"ONEWEB-0024","alt_names":[],"object_type":"PAYLOAD","status":"ACTIVE","operator":null,"country":"UK","launch_date":"2020-02-06","launch_site_code":"TYMSC","launch_vehicle":null,"mission":null,"orbit_class":"UNKNOWN","rcs_meters":null,"size_class":null,"mass_kg":null,"dimensions":null,"purposes":["comms"],"wikipedia_slug":null,"has_3d_model":false,"image_url":null,"decayed_at":null,"tle_current":{"epoch":"2026-05-25T03:17:52.223136Z","epoch_age_seconds":59140,"freshness":"FRESH","line1":"1 45137U 20008G   26145.13740999 -.00000153  00000+0 -47498-3 0  9995","line2":"2 45137  87.8868  40.8443 0001804  78.6576 281.4754 13.10374135305223","mean_motion":13.10374135,"eccentricity":0.0001804,"inclination_deg":87.8868,"raan_deg":40.8443,"arg_perigee_deg":78.6576,"mean_anomaly_deg":281.4754,"bstar":-0.00047498,"rev_number":30522,"period_min":109.89227897115,"perigee_km":1220.3410419522,"apogee_km":1223.0830674911,"semimajor_km":7599.8490547216,"source":"CELESTRAK","updated_at":"2026-05-25T13:38:22.334109Z"}}}